Location: Stara Lesna
(49.1528°N, 20.2911°E)
Time: 17:07:19
(UTC+02:00)

COSMOS 2441 - Pass Details

Date: 21 September 2019
Orbit: 709 x 730 km, 98.0° (Epoch: 21 October)

Event Time Altitude Azimuth Distance (km) Brightness Sun altitude
Rises 05:23:59 0° 10° (N) 3,148 8.0 -10.4°
Reaches altitude 10° 05:26:17 10° 8° (N) 2,225 7.2 -10.0°
Maximum altitude 05:31:06 61° 289° (WNW) 827 4.4 -9.3°
Drops below altitude 10° 05:35:54 10° 210° (SSW) 2,220 6.5 -8.5°
Sets 05:38:11 0° 206° (SSW) 3,140 7.3 -8.1°
